Location: Seasalter
(51.3333°N, 1.0167°E)
Time: 03:57:55
(UTC+00:00)

ATLAS CENTAUR R/B - Pass Details

Date: 26 September 2023
Orbit: 462 x 604 km, 64.7° (Epoch: 29 November)

Event Time Altitude Azimuth Distance (km) Brightness Sun altitude
Exits shadow 03:09:29 10° 338° (NNW) 1,645 3.8 -24.4°
Maximum altitude 03:10:23 11° 352° (N) 1,596 3.9 -24.2°
Drops below altitude 10° 03:11:27 10° 9° (N) 1,651 4.3 -24.1°
Sets 03:15:05 0° 48° (NE) 2,510 6.0 -23.6°
